Location: Bacharowice
(49.9333°N, 19.5833°E)
Time: 04:58:56
(UTC+00:00)

Envisat - Pass Details

Date: 13 October 2022
Orbit: 763 x 765 km, 98.2° (Epoch: 09 December)

Event Time Altitude Azimuth Distance (km) Brightness Sun altitude
Rises 04:22:30 0° 6° (N) 3,247 6.3 -6.8°
Reaches altitude 10° 04:25:06 10° 355° (N) 2,316 5.4 -6.4°
Maximum altitude 04:29:20 27° 299° (WNW) 1,441 3.9 -5.7°
Drops below altitude 10° 04:33:33 10° 242° (WSW) 2,302 5.0 -5.0°
Sets 04:36:08 0° 231° (SW) 3,224 5.8 -4.6°
